Flag for Germany Weather past 2 weeks in Suhl, Thuringia, Germany

58 °F


Feels Like: 58 °F
Forecast: 48 / 57 °F
Wind: 3 mph from West

Location: Meiningen

Current Time: Oct 7, 2015 at 6:49:11 PM

Latest Report: Oct 7, 2015 at 6:00 PM

Visibility: 44 mi

Pressure: 29.93 "Hg

Humidity: 79%

Dew point: 51 °F

Location of SuhlLocation

Historic Weather in Suhl — Graph


Suhl temperature yesterday

Maximum temperature yesterday: 59 °F (at 5:00 PM)
Minimum temperature yesterday: 50 °F (at 4:00 AM)
Average temperature yesterday: 54 °F

Past Weeks' High & Low Weather Summary

High65 °F (Oct 2, 3:00 PM)100% (Sep 24, 7:00 AM)30.62 "Hg (Sep 24, 7:00 AM)
Low36 °F (Oct 2, 7:00 AM)33% (Oct 2, 3:00 PM)29.63 "Hg (Sep 22, 7:00 PM)
Average51 °F81%30.18 "Hg
* Reported Sep 22 6:00 PM — Oct 7 6:00 PM, Suhl, Weather by CustomWeather, © 2015

Note: Actual official high and low records may vary slightly from our data, if they occured in-between our weather recording intervals... More about our weather records


Suhl weather history for previous 24 hours

Time TempWeatherWind HumidityBarometerVisibility
6:00 PM
Wed, Oct 7
58 °FOvercast.3 mph79%29.93 "Hg43 mi
5:00 PM60 °FOvercast.5 mph75%29.91 "Hg43 mi
4:00 PM60 °FPartly sunny.3 mph85%29.90 "Hg37 mi
3:00 PM60 °FOvercast.5 mph82%29.89 "Hg37 mi
2:00 PM60 °FLow clouds.2 mph90%29.89 "Hg34 mi
1:00 PM58 °FRain. Low clouds.3 mph93%29.89 "Hg3 mi
12:00 PM59 °FLow clouds.3 mph94%29.87 "Hg9 mi
11:00 AM58 °FLow clouds.2 mph95%29.87 "Hg6 mi
10:00 AM56 °FFog.2 mph99%29.86 "Hg2 mi
9:00 AM56 °FLow clouds.2 mph100%29.84 "Hg2 mi
8:00 AM56 °FDrizzle. Low clouds.2 mph100%29.82 "Hg1 mi
7:00 AM56 °FLow clouds.2 mph100%29.81 "Hg0 mi
6:00 AM56 °FFog.2 mph100%29.80 "Hg2 mi
4:00 AM57 °FFog.2 mph99%29.78 "Hg3 mi
3:00 AM57 °FFog.3 mph99%29.78 "Hg3 mi
2:00 AM57 °FLow clouds.3 mph100%29.78 "Hg3 mi
1:00 AM57 °FLow clouds.2 mph100%29.77 "Hg0 mi
11:00 PM
Tue, Oct 6
58 °FLight rain. Low clouds.2 mph100%29.76 "Hg3 mi
10:00 PM58 °FRain. Low clouds.3 mph100%29.75 "Hg1 mi
9:00 PM57 °FLight rain. Low clouds.3 mph99%29.74 "Hg1 mi
8:00 PM58 °FLight rain. Low clouds.3 mph99%29.74 "Hg1 mi
7:00 PM58 °FRain. Low clouds.3 mph97%29.73 "Hg1 mi
6:00 PM59 °FFog.1 mph95%29.71 "Hg3 mi
Weather by CustomWeather, © 2015

See weather overviewHow to use our weather pages